Regional Weather Roundup
Issued by NWS Grand Forks, ND

Home | Current Version | Previous Version | Graphics & Text | Print | Product List | Glossary On
Versions: 1 2 3 4 5 6 7 8 9 10 11 12 13 14 15 16 17 18 19 20 21 22 23 24 25 26 27 28 29 30 31 32 33 34 35 36 37 38 39 40 41 42 43 44 45 46 47 48 49 50
000
ASUS43 KFGF 252110
RWRFGF
PRAIRIE TO PINES  WEATHER ROUNDUP
NATIONAL WEATHER SERVICE EASTERN NORTH DAKOTA/GRAND FORKS ND
400 PM CDT SAT OCT 25 2014

 **SATELLITE DATA USED TO AUGMENT SKY COVER AT AUTOMATED STATIONS**
 *****  WEATHER ACROSS EASTERN NORTH DAKOTA  *****

CITY           SKY/WX    TMP DP  RH WIND       PRES   REMARKS
GRAND FORKS    MOSUNNY   60  25  26 NW13G20   30.05F
GRAND FRKS AFB SUNNY     61  27  27 NW10G17   30.06F
GRAND FRKS NWS   N/A     59 N/A N/A N9          N/A
DEVILS LAKE    SUNNY     57  25  28 W12       30.06S
FARGO          SUNNY     61  25  25 NW17      30.07F
WAHPETON ARPT  CLEAR     61  19  20 NW13G18   30.09S
$$

 ***** WEATHER ACROSS CENTRAL AND WESTERN NORTH DAKOTA  *****

CITY           SKY/WX    TMP DP  RH WIND       PRES   REMARKS
BISMARCK       SUNNY     65  31  28 SE8       30.08F
MINOT          PTSUNNY   59  24  26 S7        30.05F
JAMESTOWN      MOSUNNY   61  25  25 NW9       30.08F
MINOT AFB      SUNNY     58  27  30 SW6       30.04F
GARRISON         N/A     61  30  31 SE6       30.05F
WILLISTON      SUNNY     63  29  27 SE12      30.00F
DICKINSON      SUNNY     64  29  26 SE14      30.00F
HETTINGER      SUNNY     65  30  27 SE16G23   30.02F
$$

 *****  OTHER AIRPORT OBSERVATIONS IN OUR AREA  *****

CITY           SKY/WX    TMP DP  RH WIND       PRES   REMARKS
WALHALLA         N/A     59  23  25 NW14G26   30.02F
GRAFTON AIRPOR FAIR      59  28  31 NW16G22   30.04S
VALLEY CITY AR FAIR      59  25  27 N8        30.09S
CANDO          FAIR      59  23  25 W13       30.06F
CAVALIER APRT  FAIR      59  25  27 NW13G18   30.03S
GWINNER        CLEAR     63  30  29 NW12      30.10F
SHEYENNE NWR     N/A     62  23  22 NW9       29.95S
ROLLA          FAIR      57  18  21 W15       30.06S
 ***** THE ABOVE OBSERVATIONS ARE NON NWS ARE NOT QUALITY
       CONTROLLED AND MAY MIS-REPORT RAIN FOR SNOW...
$$

  *****  WEATHER ACROSS NORTHERN MINNESOTA  *****

CITY           SKY/WX    TMP DP  RH WIND       PRES   REMARKS
FLAG ISLAND    SUNNY     54  30  40 NW24G35   29.93R
WARROAD        SUNNY     55  28  35 NW21G28   29.98R
ROSEAU         SUNNY     57  25  28 NW14G25   29.98S
HALLOCK        SUNNY     61  18  18 NW20G26   30.01S
THF RVR FALLS  SUNNY     57  25  28 NW20      30.04R
BAUDETTE       SUNNY     55  26  32 W15G24    29.95S
WASKISH        SUNNY     55  34  44 W16G22    29.99R
CROOKSTON      SUNNY     59  27  29 NW14      30.06S
STEPHEN NDAWN    N/A     61  25  25 NW15        N/A
GREENBUSH NDAW   N/A     57  23  26 NW20        N/A
$$
  *****  WEATHER ACROSS CENTRAL AND WEST MINNESOTA  *****

CITY           SKY/WX    TMP DP  RH WIND       PRES   REMARKS
FOSSTON        SUNNY     57  25  28 W15G23    30.05S
BEMIDJI        SUNNY     55  26  32 W18G26    30.02R
PARK RAPIDS    SUNNY     57  22  25 NW23G30   30.03S
ELBOW LAKE     FAIR      58  27  30 NW13G21   30.08S
WADENA         SUNNY     55  28  35 NW15G22   30.05F
DETROIT LAKES  SUNNY     55  28  35 NW16      30.07S
MOORHEAD       SUNNY     61  10  13 NW14      30.08S
FERGUS FALLS   SUNNY     61  19  20 N13       30.09R
MORRIS MN      SUNNY     63  28  27 NW16      30.08S
STAPLES        SUNNY     57  25  28 NW15G23   30.05S
$$
  *****  WEATHER ELSEWHERE ACROSS MINNESOTA  *****

CITY           SKY/WX    TMP DP  RH WIND       PRES   REMARKS
DULUTH         SUNNY     58  22  24 NW16G38   29.91R
INTRNTL FALLS  SUNNY     54  28  36 W15G26    29.92R
ELY            SUNNY     54  23  30 W16G31    29.87R
CLOQUET        SUNNY     57  19  23 W20       29.94R
WHEATON        SUNNY     61  28  29 W15       30.10F
BRAINERD       SUNNY     57  21  24 NW20G26   30.03S
HIBBING        SUNNY     57  24  28 NW16G30   29.93R
ALEXANDRIA     SUNNY     58  25  28 NW15      30.09S
SAINT CLOUD    SUNNY     64  25  22 NW16G28   30.04S
MINNEAPOLIS    SUNNY     62  25  24 NW18G28   30.03F
$$

  *****  WEATHER ACROSS SOUTH DAKOTA  *****

CITY           SKY/WX    TMP DP  RH WIND       PRES   REMARKS
SIOUX FALLS    SUNNY     68  37  32 NE8       30.09F
BROOKINGS      NOT AVBL
WATERTOWN      SUNNY     63  29  27 VRB7      30.10F
HURON          SUNNY     67  28  23 VRB5      30.09F
SISSETON         N/A     63  27  25 N15       30.08F
ABERDEEN       SUNNY     65  29  25 NE3       30.10F
MITCHELL       SUNNY     69  33  26 N6        30.09F
PIERRE         SUNNY     67  28  23 SE8       30.06F
MOBRIDGE       SUNNY     66  27  23 S7        30.05F
RAPID CITY     SUNNY     65  36  34 S15       30.02F
$$

  *****  SOME WEATHER IN NEARBY STATES *****

CITY           SKY/WX    TMP DP  RH WIND       PRES   REMARKS
GLASGOW MT     SUNNY     66  34  30 SE17      29.87F
GREAT FALLS MT CLOUDY    57  42  57 E6        29.76F
CHEYENNE WY    SUNNY     74  19  12 S18       30.15F
SCOTTSBLUFF NE SUNNY     76  40  27 SE14      30.03F
OMAHA NE       SUNNY     76  41  28 NE8       30.06F
DES MOINES IA  SUNNY     72  37  28 NE8       30.07S
DAVENPORT IA   SUNNY     72  30  21 NW16      30.01S
CHICAGO IL     MOSUNNY   71  27  19 W18       29.90F
EAU CLAIRE WI  SUNNY     62  26  25 W18G25    29.97S
LA CROSSE WI   SUNNY     66  28  24 NW15      29.98S
$$

  *****  SOME NATIONAL WEATHER *****

CITY           SKY/WX    TMP DP  RH WIND       PRES   REMARKS
LA GUARDIA NY  PTCLDY    67  43  41 SW16      29.65F
RALEIGH NC     SUNNY     70  43  37 SW8       29.91F
ATLANTA GA     SUNNY     75  46  35 NW12      30.01S
NEW ORLEANS LA SUNNY     78  54  43 VRB6      30.08F
OKLAHOMA CITY  SUNNY     91  56  30 SW8       30.04F
ALBUQUERQUE NM SUNNY     76  36  23 VRB7      30.23F
SALT LAKE CITY PTSUNNY   78  32  18 S22G30    29.96F
LOS ANGELES CA MOSUNNY   73  57  57 W13       30.03F
BOISE ID       PTSUNNY   76  35  22 SE12      29.75F
SEATTLE WA     LGT RAIN  59  51  75 E3        29.34F
$$

*** WEATHER ACROSS MANITOBA...SASKATCHEWAN AND ONTARIO ***
                ***ONTARIO***

CITY           SKY/WX    TMP DP  RH WIND       PRES   REMARKS
GERALDTON      LGT RAIN  45  36  70 W17       29.55R
THUNDER BAY    MOSUNNY   55  28  35 NW20G37   29.69R
SIOUX LOOKOUT  MOSUNNY   48  32  53 NW15G31   29.81R
TORONTO        PTSUNNY   61  43  51 W20       29.60S
BIG TROUT LK   CLOUDY    39  36  87 NW17G28   29.61R
PICKLE LAKE    CLOUDY    41  30  65 NW18G37   29.71R
DRYDEN         NOT AVBL
KENORA         MOSUNNY   52  28  40 NW14G24   29.91R
$$
                *** MANITOBA***

CITY           SKY/WX    TMP DP  RH WIND       PRES   REMARKS
BRANDON        MOSUNNY   59  27  29 W20G28    30.02F
DAUPHIN        SUNNY     57  27  30 NW21G30   29.96S
ISLAND LAKE    CLOUDY    39  30  70 W16G26    29.79R
PILOT MOUND      N/A     57  25  28 W12G20      N/A
THE PAS        MOSUNNY   43  27  52 NW17G25   29.93R
THOMPSON       PTSUNNY   39  30  70 W20G25    29.78R
WINNIPEG       MOSUNNY   57  27  30 NW25G33   29.99R
LYNN LAKE      CLOUDY    36  30  80 W12G22    29.83R
CHURCHILL      LGT RAIN  34  34 100 NW17G25   29.56R WCI  23
GILLAM         DRIZZLE   39  34  81 W20G29    29.65R
$$
                ***SASKATCHEWAN***

CITY           SKY/WX    TMP DP  RH WIND       PRES   REMARKS
ESTEVAN        PTSUNNY   59  28  31 S8        30.02F
KINDERSLEY     PTSUNNY   48  27  43 E17       29.89F
LLOYDMINSTER   PTSUNNY   43  27  52 E9        29.90F
PRINCE ALBERT  PTSUNNY   45  30  57 NW7       29.98F
REGINA         PTSUNNY   55  32  41 E8        29.99F
YORKTON        SUNNY     55  25  30 W15G21    29.99F
N. BATTLEFORD  PTSUNNY   46  28  49 E5        29.96F
LA RONGE       PTSUNNY   39  27  60 W12       29.98S
SASKATOON      CLOUDY    48  27  43 E5        29.99F
SWIFT CURRENT  SUNNY     54  25  32 SE15G23   29.89F
$$
NOTE: THESE ARE AUTOMATED STATIONS WITH LIMITED QUALITY CONTROL
      "FAIR" INDICATES FEW OR NO CLOUDS BELOW 12,000 FEET WITH NO
      SIGNIFICANT WEATHER AND/OR OBSTRUCTIONS TO VISIBILITY.
      SKY/WX - SKY CONDITION AND SIGNIFICANT WEATHER.
      TMP - AIR TEMPERATURE.    DP   - DEWPOINT TEMPERATURE.
      RH  - RELATIVE HUMIDITY.  PRES - PRESSURE.
      HX  - HEAT INDEX.         WCI  - WIND CHILL INDEX.
$



USA.gov is the U.S. government's official web portal to all federal, state and local government web resources and services.